sat.trackr.live / text

‹ back to catalog

STARLINK-36715

NORAD 67716 · 2026-025Z

PAYLOAD ACTIVE UNKNOWN

§ Identity

Operator
Country
US
Launch date
2026-02-07
Launch site
AFWTR
Launch vehicle
Mass (kg)
RCS (m²)

Purposes: comms

External: N2YO · Heavens-Above · Gunter

§ Orbital elements

Epoch: 2026-09-19T06:37:08.226624Z

Period
93.91 min
Inclination
97.2876°
Eccentricity
0.0001396
Mean motion
15.33455737 rev/d
Perigee alt
464.6 km
Apogee alt
466.5 km
Semi-major
6,843.6 km
B*
5.8145e-4
RAAN
12.1285°
Arg perigee
111.5894°
Mean anomaly
248.5497°
Rev number
3,567

§ Raw data

STARLINK-367151 67716U 26025Z   26262.27578966  .00018749  00000+0  58145-3 0  99942 67716  97.2876  12.1285 0001396 111.5894 248.5497 15.33455737 35678

JSON: /api/v1/satellites/67716 · /tle

For live sub-satellite position, see the globe view (requires WebGL).

§ Visibility from observer

Set your observer location to see the next 7 days of passes ≥ 10°. The values pass through the URL so the page stays shareable.

No JS? Fill the form by hand. The geolocation button needs JavaScript.